Oskaloosa, IA

2:33 AM CDT on April 20, 2018 (GMT -0500)
Oskaloosa Municipal

Weather History for KOOA - May, 2013

Change the Weather History Date:

Thursday, May 2, 2013

  Actual Average (KOTM) Record (KOTM)
Temperature  
Mean Temperature 37 °F -  
Max Temperature 41 °F 68 °F 89 °F (1968)
Min Temperature 32 °F 45 °F 32 °F (1961)
Degree Days  
Heating Degree Days 28    
Moisture  
Dew Point 33 °F    
Average Humidity 86    
Maximum Humidity 93    
Minimum Humidity 71    
Precipitation  
Precipitation 0.48 in - - ()
Sea Level Pressure  
Sea Level Pressure 30.29 in    
Wind  
Wind Speed 21 mph (North)    
Max Wind Speed 32 mph    
Max Gust Speed 37 mph    
Visibility 8 miles    
Events Rain , Snow    
Averages and records for this station are not official NWS values.
T = Trace of Precipitation, MM = Missing Value Source: NWS Daily Summary

Daily Weather History Graph

Daily Weather History Graph

Search for Another Location

Airport or City:

Astronomy

May. 02, 2013 Rise Set
Actual Time 6:05 AM CDT 8:08 PM CDT
Civil Twilight 5:35 AM CDT 8:38 PM CDT
Nautical Twilight 4:59 AM CDT 9:15 PM CDT
Astronomical Twilight 4:18 AM CDT 9:56 PM CDT
Moon 1:57 AM CDT (5/2) 12:54 PM CDT (5/2)
Length of Visible Light 15h 02m
Length of Day
14h 02m
Waning Gibbous, 47% of the Moon is Illuminated
May 2
Waning Gibbous
May 9
New
May 17
First Quarter
May 24
Full
May 31
Last Quarter

Hourly Weather History & Observations

Time (CDT) Temp. Windchill Dew Point Humidity Pressure Visibility Wind Dir Wind Speed Gust Speed Precip Events Conditions
12:15 AM 42.8 °F 33.5 °F 34.2 °F 72% 30.23 in 10.0 mi North 23.0 mph 28.8 mph N/A   Overcast
12:35 AM 42.4 °F 32.8 °F 34.0 °F 72% 30.22 in 10.0 mi North 24.2 mph 28.8 mph N/A   Overcast
12:55 AM 41.9 °F 32.3 °F 33.8 °F 73% 30.21 in 10.0 mi North 23.0 mph - N/A   Overcast
1:35 AM 41.9 °F 33.7 °F 33.8 °F 73% 30.23 in 10.0 mi North 17.3 mph 29.9 mph N/A   Overcast
1:55 AM 41.9 °F 33.4 °F 33.4 °F 72% 30.22 in 10.0 mi North 18.4 mph 29.9 mph N/A   Overcast
2:15 AM 41.9 °F 33.1 °F 33.3 °F 71% 30.23 in 10.0 mi North 19.6 mph 29.9 mph N/A   Overcast
2:35 AM 41.5 °F 31.6 °F 32.9 °F 71% 30.24 in 10.0 mi North 24.2 mph 32.2 mph N/A   Overcast
2:55 AM 41.5 °F 32.4 °F 32.9 °F 71% 30.23 in 10.0 mi North 20.7 mph 28.8 mph N/A   Overcast
3:15 AM 41.5 °F 32.1 °F 32.9 °F 71% 30.22 in 10.0 mi North 21.9 mph 27.6 mph N/A   Overcast
3:35 AM 41.2 °F 32.7 °F 32.9 °F 72% 30.22 in 10.0 mi North 17.3 mph 28.8 mph N/A   Overcast
3:55 AM 40.6 °F 30.9 °F 32.4 °F 72% 30.23 in 10.0 mi North 21.9 mph 32.2 mph N/A   Overcast
4:15 AM 40.6 °F 31.7 °F 33.1 °F 74% 30.27 in 10.0 mi North 18.4 mph 26.5 mph N/A Rain Light Rain
4:35 AM 39.2 °F 28.7 °F 34.0 °F 82% 30.26 in 5.0 mi North 23.0 mph 29.9 mph 0.01 in Rain Rain
4:55 AM 38.1 °F 28.4 °F 34.2 °F 86% 30.26 in 7.0 mi North 18.4 mph 25.3 mph 0.04 in Rain Rain
5:15 AM 37.8 °F 27.1 °F 34.3 °F 87% 30.26 in 10.0 mi North 21.9 mph 28.8 mph 0.01 in Rain Rain
5:35 AM 37.4 °F 26.1 °F 34.2 °F 88% 30.25 in 3.0 mi North 24.2 mph 29.9 mph 0.06 in Rain Light Rain
5:55 AM 37.0 °F 25.6 °F 34.0 °F 89% 30.26 in 4.0 mi North 24.2 mph 28.8 mph 0.12 in Rain Light Rain
6:15 AM 36.5 °F 23.3 °F 33.4 °F 89% 30.26 in 5.0 mi North 32.2 mph 36.8 mph 0.03 in Rain Rain
6:35 AM 36.5 °F 24.7 °F 33.8 °F 90% 30.30 in 7.0 mi NNE 25.3 mph 34.5 mph 0.10 in Snow Snow
6:55 AM 36.9 °F 25.6 °F 34.0 °F 89% 30.29 in 1.8 mi NNE 23.0 mph 31.1 mph 0.14 in   Overcast
7:15 AM 37.6 °F 27.4 °F 34.7 °F 89% 30.30 in 10.0 mi NNE 19.6 mph 25.3 mph N/A Snow Light Snow
7:35 AM 38.3 °F 29.3 °F 34.9 °F 87% 30.30 in 10.0 mi North 16.1 mph 19.6 mph 0.02 in Rain Rain
7:55 AM 38.1 °F 28.8 °F 35.2 °F 89% 30.31 in 7.0 mi North 17.3 mph - 0.04 in Rain Light Rain
8:15 AM 38.3 °F 29.3 °F 35.6 °F 90% 30.32 in 10.0 mi North 16.1 mph - N/A Rain Light Rain
8:35 AM 37.8 °F 28.0 °F 35.1 °F 90% 30.32 in 10.0 mi North 18.4 mph - N/A   Overcast
8:55 AM 37.9 °F 29.2 °F 35.2 °F 90% 30.33 in 10.0 mi North 15.0 mph 23.0 mph N/A   Overcast
9:15 AM 37.9 °F 27.9 °F 34.9 °F 89% 30.31 in 10.0 mi North 19.6 mph - N/A   Overcast
9:35 AM 37.9 °F 27.3 °F 34.9 °F 89% 30.32 in 10.0 mi North 21.9 mph 27.6 mph N/A Rain Light Rain
9:55 AM 37.6 °F 27.1 °F 34.2 °F 87% 30.31 in 10.0 mi North 20.7 mph 24.2 mph N/A   Overcast
10:15 AM 37.0 °F 26.7 °F 33.8 °F 88% 30.32 in 10.0 mi North 19.6 mph 24.2 mph 0.01 in Rain Light Rain
10:35 AM 37.4 °F 28.5 °F 33.8 °F 87% 30.33 in 10.0 mi North 15.0 mph 27.6 mph 0.01 in   Overcast
10:55 AM 37.2 °F 26.4 °F 33.6 °F 87% 30.33 in 10.0 mi North 21.9 mph 28.8 mph 0.01 in   Overcast
11:15 AM 37.0 °F 25.9 °F 33.1 °F 86% 30.33 in 10.0 mi North 23.0 mph 33.4 mph N/A   Overcast
11:35 AM 37.4 °F 26.6 °F 33.3 °F 85% 30.33 in 10.0 mi North 21.9 mph 29.9 mph N/A   Overcast
11:55 AM 37.4 °F 26.1 °F 32.9 °F 84% 30.34 in 10.0 mi North 24.2 mph 32.2 mph N/A   Overcast
12:15 PM 37.4 °F 26.9 °F 32.9 °F 84% 30.34 in 10.0 mi North 20.7 mph 29.9 mph N/A   Overcast
12:35 PM 37.4 °F 26.4 °F 32.9 °F 84% 30.34 in 10.0 mi North 23.0 mph 32.2 mph N/A   Overcast
12:55 PM 37.4 °F 26.9 °F 33.3 °F 85% 30.33 in 10.0 mi North 20.7 mph 24.2 mph N/A   Overcast
1:15 PM 36.9 °F 26.2 °F 33.1 °F 86% 30.34 in 10.0 mi North 20.7 mph 28.8 mph N/A   Overcast
1:35 PM 36.9 °F 26.2 °F 33.1 °F 86% 30.35 in 10.0 mi North 20.7 mph 24.2 mph N/A   Overcast
1:55 PM 37.0 °F 27.4 °F 33.1 °F 86% 30.33 in 10.0 mi North 17.3 mph 24.2 mph N/A   Overcast
2:15 PM 36.9 °F 25.6 °F 32.9 °F 86% 30.34 in 10.0 mi North 23.0 mph 26.5 mph N/A Rain Light Rain
2:35 PM 36.5 °F 25.7 °F 32.9 °F 87% 30.35 in 10.0 mi NNW 20.7 mph 24.2 mph 0.01 in Rain Light Rain
2:55 PM 36.0 °F 24.4 °F 32.9 °F 89% 30.32 in 10.0 mi North 23.0 mph 26.5 mph 0.01 in Rain Light Rain
3:15 PM 36.1 °F 24.4 °F 33.1 °F 89% 30.32 in 7.0 mi North 24.2 mph 28.8 mph 0.01 in Rain Light Rain
3:35 PM 36.0 °F 24.7 °F 32.9 °F 89% 30.32 in 10.0 mi North 21.9 mph 32.2 mph 0.01 in Rain Light Rain
3:55 PM 35.8 °F 24.2 °F 32.5 °F 88% 30.32 in 10.0 mi North 23.0 mph 28.8 mph 0.01 in Rain Light Rain
4:15 PM 35.1 °F 23.5 °F 32.0 °F 89% 30.32 in 7.0 mi North 21.9 mph 28.8 mph 0.01 in Rain Light Rain
4:35 PM 34.7 °F 22.0 °F 32.0 °F 90% 30.31 in 10.0 mi North 26.5 mph 34.5 mph 0.01 in Rain Light Rain
4:55 PM 34.7 °F 22.5 °F 31.8 °F 89% 30.31 in 7.0 mi North 24.2 mph 32.2 mph 0.01 in Rain Light Rain
5:15 PM 34.3 °F 22.6 °F 31.8 °F 90% 30.31 in 10.0 mi North 21.9 mph 29.9 mph 0.01 in Rain Light Rain
5:35 PM 34.3 °F 22.6 °F 31.8 °F 90% 30.30 in 7.0 mi North 21.9 mph 31.1 mph 0.01 in Rain Rain
5:55 PM 34.2 °F 23.0 °F 31.6 °F 90% 30.30 in 5.0 mi North 19.6 mph 29.9 mph 0.01 in Rain Light Rain
6:15 PM 34.0 °F 22.7 °F 31.5 °F 90% 30.31 in 7.0 mi North 19.6 mph 28.8 mph N/A   Overcast
6:35 PM 34.0 °F 22.4 °F 31.3 °F 90% 30.33 in 10.0 mi North 20.7 mph 26.5 mph N/A   Overcast
6:55 PM 33.8 °F 22.8 °F 31.1 °F 90% 30.32 in 10.0 mi North 18.4 mph 28.8 mph N/A   Overcast
7:15 PM 33.8 °F 21.9 °F 31.1 °F 90% 30.30 in 10.0 mi North 21.9 mph 27.6 mph N/A   Overcast
7:35 PM 33.8 °F 23.2 °F 31.1 °F 90% 30.30 in 7.0 mi North 17.3 mph 31.1 mph N/A   Overcast
7:55 PM 33.8 °F 21.9 °F 31.1 °F 90% 30.30 in 10.0 mi North 21.9 mph 27.6 mph N/A   Overcast
8:15 PM 33.8 °F 22.8 °F 31.1 °F 90% 30.31 in 10.0 mi North 18.4 mph 27.6 mph N/A   Overcast
8:35 PM 33.8 °F 21.9 °F 30.9 °F 89% 30.30 in 10.0 mi North 21.9 mph 27.6 mph N/A Rain Light Rain
8:55 PM 33.4 °F 21.1 °F 30.9 °F 90% 30.30 in 7.0 mi North 23.0 mph - N/A Rain Rain
9:15 PM 32.9 °F 21.6 °F 30.6 °F 91% 30.29 in 5.0 mi North 18.4 mph - 0.01 in Rain Light Rain
9:35 PM 33.1 °F 23.0 °F 31.1 °F 92% 30.30 in 7.0 mi North 15.0 mph - 0.01 in Rain Light Rain
9:55 PM 33.1 °F 22.6 °F 31.1 °F 92% 30.30 in 7.0 mi North 16.1 mph 21.9 mph 0.01 in Rain Light Rain
10:15 PM 33.1 °F 21.9 °F 30.9 °F 92% 30.29 in 5.0 mi North 18.4 mph 23.0 mph 0.01 in Rain Light Rain
10:35 PM 32.4 °F 21.3 °F 30.6 °F 93% 30.29 in 4.0 mi North 17.3 mph - 0.02 in Snow Light Snow
10:55 PM 32.0 °F 21.6 °F 30.2 °F 93% 30.30 in 5.0 mi North 15.0 mph 21.9 mph 0.04 in Snow Light Snow
11:15 PM 32.0 °F 20.8 °F 30.2 °F 93% 30.27 in 4.0 mi North 17.3 mph 21.9 mph 0.02 in Snow Light Snow
11:35 PM 32.0 °F 22.5 °F 30.2 °F 93% 30.28 in 2.5 mi North 12.7 mph - 0.03 in Snow Light Snow
11:55 PM 32.0 °F 22.1 °F 30.2 °F 93% 30.27 in 2.5 mi North 13.8 mph - 0.04 in Snow Light Snow